Time,TemperatureF,DewpointF,PressureIn,WindDirection,WindDirectionDegrees,WindSpeedMPH,WindSpeedGustMPH,Humidity,HourlyPrecipIn,Conditions,Clouds,dailyrainin,SoftwareType,DateUTC
2013-05-27 00:01:00,60.1,50.7,30.17,SSW,196,0.0,0.0,71,0.00,,,0.00,VWS V14.01,2013-05-27 04:01:00,
2013-05-27 00:06:00,59.9,50.9,30.17,SSW,196,0.0,0.0,72,0.00,,,0.00,VWS V14.01,2013-05-27 04:06:00,
2013-05-27 00:11:00,59.8,51.5,30.16,SSW,196,0.0,0.0,74,0.00,,,0.00,VWS V14.01,2013-05-27 04:11:00,
2013-05-27 00:16:00,59.6,51.7,30.16,SSW,196,0.0,0.0,75,0.00,,,0.00,VWS V14.01,2013-05-27 04:16:00,
2013-05-27 00:21:00,59.5,51.9,30.16,SSW,196,0.0,0.0,76,0.00,,,0.00,VWS V14.01,2013-05-27 04:21:00,
2013-05-27 00:26:00,59.4,52.2,30.16,SSW,196,0.0,0.0,77,0.00,,,0.00,VWS V14.01,2013-05-27 04:26:00,
2013-05-27 00:31:00,59.3,52.1,30.16,SSW,196,0.0,0.0,77,0.00,,,0.00,VWS V14.01,2013-05-27 04:31:00,
2013-05-27 00:36:00,59.3,52.1,30.16,SSW,196,0.0,0.0,77,0.00,,,0.00,VWS V14.01,2013-05-27 04:36:00,
2013-05-27 00:41:00,59.3,52.5,30.16,SSW,196,0.0,0.0,78,0.00,,,0.00,VWS V14.01,2013-05-27 04:41:00,
2013-05-27 00:46:00,59.2,52.3,30.16,SSW,196,0.0,0.0,78,0.00,,,0.00,VWS V14.01,2013-05-27 04:46:00,
2013-05-27 00:51:00,59.2,52.7,30.16,SSW,196,0.0,0.0,79,0.00,,,0.00,VWS V14.01,2013-05-27 04:51:00,
2013-05-27 00:56:00,59.2,53.0,30.15,SSW,196,0.0,0.0,80,0.00,,,0.00,VWS V14.01,2013-05-27 04:56:00,
2013-05-27 01:01:00,59.2,53.4,30.15,SSW,196,0.0,0.0,81,0.00,,,0.00,VWS V14.01,2013-05-27 05:01:00,
2013-05-27 01:06:00,59.1,53.3,30.15,SSW,196,0.0,0.0,81,0.00,,,0.00,VWS V14.01,2013-05-27 05:06:00,
2013-05-27 01:11:00,59.1,53.3,30.14,SSW,196,0.0,0.0,81,0.00,,,0.00,VWS V14.01,2013-05-27 05:11:00,
2013-05-27 01:16:00,59.0,53.2,30.14,SSW,196,0.0,0.0,81,0.00,,,0.00,VWS V14.01,2013-05-27 05:16:00,
2013-05-27 01:21:00,59.0,53.2,30.14,SSW,196,0.0,0.0,81,0.00,,,0.00,VWS V14.01,2013-05-27 05:21:00,
2013-05-27 01:26:00,59.0,53.2,30.14,SSW,196,0.0,0.0,81,0.00,,,0.00,VWS V14.01,2013-05-27 05:26:00,
2013-05-27 01:31:00,59.0,53.5,30.14,SSW,196,0.0,0.0,82,0.00,,,0.00,VWS V14.01,2013-05-27 05:31:00,
2013-05-27 01:36:00,58.9,53.4,30.14,SSW,196,0.0,0.0,82,0.00,,,0.00,VWS V14.01,2013-05-27 05:36:00,
2013-05-27 01:41:00,58.9,53.4,30.14,SSW,196,0.0,0.0,82,0.00,,,0.00,VWS V14.01,2013-05-27 05:41:00,
2013-05-27 01:46:00,58.9,53.8,30.14,SSW,196,0.0,0.0,83,0.00,,,0.00,VWS V14.01,2013-05-27 05:46:00,
2013-05-27 01:51:00,58.9,53.4,30.14,SSW,196,0.0,0.0,82,0.00,,,0.00,VWS V14.01,2013-05-27 05:51:00,
2013-05-27 01:56:00,58.8,53.3,30.14,SSW,196,0.0,0.0,82,0.00,,,0.00,VWS V14.01,2013-05-27 05:56:00,
2013-05-27 02:01:00,58.8,53.0,30.14,SSW,196,0.0,0.0,81,0.00,,,0.00,VWS V14.01,2013-05-27 06:01:00,
2013-05-27 02:06:00,58.8,53.0,30.14,SSW,196,0.0,0.0,81,0.00,,,0.00,VWS V14.01,2013-05-27 06:06:00,
2013-05-27 02:11:00,58.8,53.0,30.14,SSW,196,0.0,0.0,81,0.00,,,0.00,VWS V14.01,2013-05-27 06:11:00,
2013-05-27 02:15:00,58.6,52.1,30.14,SSW,196,0.0,0.0,79,0.00,,,0.00,VWS V14.01,2013-05-27 06:15:00,
2013-05-27 02:20:00,58.6,51.8,30.14,SSW,196,0.0,0.0,78,0.00,,,0.00,VWS V14.01,2013-05-27 06:20:00,
2013-05-27 02:25:00,58.6,51.4,30.14,SSW,196,0.0,0.0,77,0.00,,,0.00,VWS V14.01,2013-05-27 06:25:00,
2013-05-27 02:30:00,58.5,51.0,30.13,SSW,196,0.0,0.0,76,0.00,,,0.00,VWS V14.01,2013-05-27 06:30:00,
2013-05-27 02:35:00,58.5,48.8,30.13,SSW,196,0.0,0.0,70,0.00,,,0.00,VWS V14.01,2013-05-27 06:35:00,
2013-05-27 02:40:00,58.6,50.3,30.13,SSW,196,0.0,0.0,74,0.00,,,0.00,VWS V14.01,2013-05-27 06:40:00,
2013-05-27 02:45:00,58.6,49.6,30.13,SSW,196,0.0,0.0,72,0.00,,,0.00,VWS V14.01,2013-05-27 06:45:00,
2013-05-27 02:50:00,58.6,49.6,30.12,SSW,210,0.0,1.0,72,0.00,,,0.00,VWS V14.01,2013-05-27 06:50:00,
2013-05-27 02:55:00,58.6,45.2,30.12,SW,231,0.0,3.0,61,0.00,,,0.00,VWS V14.01,2013-05-27 06:55:00,
2013-05-27 03:00:00,59.0,43.8,30.12,SE,142,0.0,5.0,57,0.00,,,0.00,VWS V14.01,2013-05-27 07:00:00,
2013-05-27 03:05:00,59.5,45.2,30.12,SSE,159,0.0,5.0,59,0.00,,,0.00,VWS V14.01,2013-05-27 07:05:00,
2013-05-27 03:10:00,59.7,43.5,30.12,SSW,202,0.0,5.0,55,0.00,,,0.00,VWS V14.01,2013-05-27 07:10:00,
2013-05-27 03:15:00,59.9,44.7,30.12,SSW,202,0.0,3.0,57,0.00,,,0.00,VWS V14.01,2013-05-27 07:15:00,
2013-05-27 03:20:00,60.0,42.3,30.12,ESE,119,0.0,2.0,52,0.00,,,0.00,VWS V14.01,2013-05-27 07:20:00,
2013-05-27 03:25:00,60.1,42.4,30.12,SSE,149,1.0,5.0,52,0.00,,,0.00,VWS V14.01,2013-05-27 07:25:00,
2013-05-27 03:30:00,60.2,42.5,30.12,SSE,166,0.0,5.0,52,0.00,,,0.00,VWS V14.01,2013-05-27 07:30:00,
2013-05-27 03:35:00,60.3,42.6,30.12,SSW,200,0.0,4.0,52,0.00,,,0.00,VWS V14.01,2013-05-27 07:35:00,
2013-05-27 03:40:00,60.3,44.1,30.13,SSW,204,0.0,4.0,55,0.00,,,0.00,VWS V14.01,2013-05-27 07:40:00,
2013-05-27 03:45:00,60.2,42.0,30.12,South,185,0.0,2.0,51,0.00,,,0.00,VWS V14.01,2013-05-27 07:45:00,
2013-05-27 03:50:00,60.2,42.0,30.12,SW,214,0.0,2.0,51,0.00,,,0.00,VWS V14.01,2013-05-27 07:50:00,
2013-05-27 03:55:00,60.2,41.0,30.12,SSE,148,0.0,4.0,49,0.00,,,0.00,VWS V14.01,2013-05-27 07:55:00,
2013-05-27 04:00:00,60.3,41.1,30.12,SE,145,2.0,4.0,49,0.00,,,0.00,VWS V14.01,2013-05-27 08:00:00,
2013-05-27 04:05:00,60.4,42.2,30.12,South,182,0.0,4.0,51,0.00,,,0.00,VWS V14.01,2013-05-27 08:05:00,
2013-05-27 04:10:00,60.5,41.3,30.12,South,184,0.0,4.0,49,0.00,,,0.00,VWS V14.01,2013-05-27 08:10:00,
2013-05-27 04:15:00,60.6,40.8,30.12,SW,216,1.0,5.0,48,0.00,,,0.00,VWS V14.01,2013-05-27 08:15:00,
2013-05-27 04:20:00,60.6,41.4,30.12,South,181,0.0,5.0,49,0.00,,,0.00,VWS V14.01,2013-05-27 08:20:00,
2013-05-27 04:25:00,60.6,43.4,30.12,SSW,192,0.0,6.0,53,0.00,,,0.00,VWS V14.01,2013-05-27 08:25:00,
2013-05-27 04:30:00,60.5,42.3,30.12,SSW,194,0.0,6.0,51,0.00,,,0.00,VWS V14.01,2013-05-27 08:30:00,
2013-05-27 04:35:00,60.5,42.3,30.11,SSW,200,0.0,5.0,51,0.00,,,0.00,VWS V14.01,2013-05-27 08:35:00,
2013-05-27 04:40:00,60.4,43.2,30.11,South,171,0.0,4.0,53,0.00,,,0.00,VWS V14.01,2013-05-27 08:40:00,
2013-05-27 04:45:00,60.3,41.1,30.11,SSW,196,0.0,4.0,49,0.00,,,0.00,VWS V14.01,2013-05-27 08:45:00,
2013-05-27 04:50:00,60.4,40.6,30.11,SE,140,0.0,6.0,48,0.00,,,0.00,VWS V14.01,2013-05-27 08:50:00,
2013-05-27 04:55:00,60.4,41.7,30.11,South,172,1.0,6.0,50,0.00,,,0.00,VWS V14.01,2013-05-27 08:55:00,
2013-05-27 05:00:00,60.5,41.3,30.11,NNW,333,0.0,6.0,49,0.00,,,0.00,VWS V14.01,2013-05-27 09:00:00,
2013-05-27 05:05:00,60.5,40.7,30.11,SE,135,1.0,5.0,48,0.00,,,0.00,VWS V14.01,2013-05-27 09:05:00,
2013-05-27 05:10:00,60.5,41.8,30.11,NNE,26,0.0,5.0,50,0.00,,,0.00,VWS V14.01,2013-05-27 09:10:00,
2013-05-27 05:15:00,60.5,41.8,30.11,SW,233,0.0,5.0,50,0.00,,,0.00,VWS V14.01,2013-05-27 09:15:00,
2013-05-27 05:20:00,60.4,41.2,30.11,SW,232,0.0,6.0,49,0.00,,,0.00,VWS V14.01,2013-05-27 09:20:00,
2013-05-27 05:25:00,60.4,42.7,30.11,SE,142,3.0,6.0,52,0.00,,,0.00,VWS V14.01,2013-05-27 09:25:00,
2013-05-27 05:30:00,60.3,45.0,30.11,SW,217,4.0,7.0,57,0.00,,,0.00,VWS V14.01,2013-05-27 09:30:00,
2013-05-27 05:35:00,59.9,45.5,30.11,SSW,208,2.0,7.0,59,0.00,,,0.00,VWS V14.01,2013-05-27 09:35:00,
2013-05-27 05:40:00,59.5,46.1,30.11,SSE,165,5.0,7.0,61,0.00,,,0.00,VWS V14.01,2013-05-27 09:40:00,
2013-05-27 05:45:00,59.0,46.4,30.12,SW,225,6.0,7.0,63,0.00,,,0.00,VWS V14.01,2013-05-27 09:45:00,
2013-05-27 05:50:00,58.3,46.6,30.12,SW,227,2.0,14.0,65,0.00,,,0.00,VWS V14.01,2013-05-27 09:50:00,
2013-05-27 05:55:00,57.8,46.9,30.12,SSE,163,2.0,14.0,67,0.00,,,0.00,VWS V14.01,2013-05-27 09:55:00,
2013-05-27 06:00:00,57.4,46.9,30.11,SW,231,4.0,9.0,68,0.00,,,0.00,VWS V14.01,2013-05-27 10:00:00,
2013-05-27 06:05:00,57.1,47.4,30.11,SSW,203,1.0,11.0,70,0.00,,,0.00,VWS V14.01,2013-05-27 10:05:00,
2013-05-27 06:10:00,56.8,47.9,30.11,ENE,73,0.0,11.0,72,0.00,,,0.00,VWS V14.01,2013-05-27 10:10:00,
2013-05-27 06:15:00,56.6,48.4,30.11,South,190,2.0,7.0,74,0.00,,,0.00,VWS V14.01,2013-05-27 10:15:00,
2013-05-27 06:20:00,56.2,48.8,30.11,WSW,256,0.0,7.0,76,0.00,,,0.00,VWS V14.01,2013-05-27 10:20:00,
2013-05-27 06:25:00,55.9,49.2,30.12,SSW,212,4.0,6.0,78,0.00,,,0.00,VWS V14.01,2013-05-27 10:25:00,
2013-05-27 06:30:00,55.5,49.4,30.12,South,188,1.0,6.0,80,0.00,,,0.00,VWS V14.01,2013-05-27 10:30:00,
2013-05-27 06:35:00,55.1,49.4,30.12,SSE,157,0.0,6.0,81,0.00,,,0.00,VWS V14.01,2013-05-27 10:35:00,
2013-05-27 06:40:00,54.8,49.4,30.13,SSW,194,0.0,7.0,82,0.00,,,0.00,VWS V14.01,2013-05-27 10:40:00,
2013-05-27 06:45:00,54.5,49.5,30.13,West,271,2.0,9.0,83,0.00,,,0.00,VWS V14.01,2013-05-27 10:45:00,
2013-05-27 06:50:00,54.3,49.6,30.13,South,175,0.0,9.0,84,0.00,,,0.00,VWS V14.01,2013-05-27 10:50:00,
2013-05-27 06:55:00,54.2,49.8,30.13,West,260,1.0,9.0,85,0.00,,,0.00,VWS V14.01,2013-05-27 10:55:00,
2013-05-27 07:00:00,54.0,49.9,30.13,SE,138,0.0,5.0,86,0.00,,,0.00,VWS V14.01,2013-05-27 11:00:00,
2013-05-27 07:05:00,53.7,49.6,30.13,WSW,246,1.0,5.0,86,0.01,,,0.01,VWS V14.01,2013-05-27 11:05:00,
2013-05-27 07:10:00,53.6,49.8,30.13,SSW,192,3.0,5.0,87,0.01,,,0.01,VWS V14.01,2013-05-27 11:10:00,
2013-05-27 07:15:00,53.4,49.9,30.13,ESE,108,0.0,5.0,88,0.02,,,0.02,VWS V14.01,2013-05-27 11:15:00,
2013-05-27 07:20:00,53.1,50.0,30.12,ESE,111,2.0,5.0,89,0.03,,,0.03,VWS V14.01,2013-05-27 11:20:00,
2013-05-27 07:25:00,52.8,49.7,30.12,SW,221,5.0,5.0,89,0.04,,,0.04,VWS V14.01,2013-05-27 11:25:00,
2013-05-27 07:30:00,52.6,49.8,30.11,NNW,330,0.0,5.0,90,0.05,,,0.05,VWS V14.01,2013-05-27 11:30:00,
2013-05-27 07:35:00,52.5,50.0,30.11,SW,221,4.0,5.0,91,0.06,,,0.06,VWS V14.01,2013-05-27 11:35:00,
2013-05-27 07:40:00,52.4,49.8,30.11,SE,126,1.0,5.0,91,0.06,,,0.06,VWS V14.01,2013-05-27 11:40:00,
2013-05-27 07:45:00,52.3,50.0,30.12,South,189,0.0,4.0,92,0.07,,,0.07,VWS V14.01,2013-05-27 11:45:00,
2013-05-27 07:50:00,52.3,50.0,30.12,East,96,0.0,4.0,92,0.07,,,0.07,VWS V14.01,2013-05-27 11:50:00,
2013-05-27 07:55:00,52.2,50.0,30.11,West,270,0.0,4.0,92,0.07,,,0.07,VWS V14.01,2013-05-27 11:55:00,
2013-05-27 08:00:00,52.2,50.2,30.11,East,100,0.0,8.0,93,0.08,,,0.08,VWS V14.01,2013-05-27 12:00:00,
2013-05-27 08:05:00,52.2,50.2,30.11,SSW,213,2.0,8.0,93,0.07,,,0.08,VWS V14.01,2013-05-27 12:05:00,
2013-05-27 08:09:00,52.2,50.2,30.11,South,181,1.0,6.0,93,0.07,,,0.08,VWS V14.01,2013-05-27 12:09:00,
2013-05-27 08:14:00,52.2,50.2,30.11,SSE,154,2.0,5.0,93,0.07,,,0.09,VWS V14.01,2013-05-27 12:14:00,
2013-05-27 08:19:00,52.1,50.4,30.10,WSW,238,8.0,8.0,94,0.07,,,0.10,VWS V14.01,2013-05-27 12:19:00,
2013-05-27 08:24:00,52.0,50.3,30.10,SW,234,4.0,11.0,94,0.06,,,0.10,VWS V14.01,2013-05-27 12:24:00,
2013-05-27 08:29:00,52.1,50.4,30.10,West,263,0.0,11.0,94,0.05,,,0.10,VWS V14.01,2013-05-27 12:29:00,
2013-05-27 08:34:00,52.0,50.3,30.10,East,96,0.0,8.0,94,0.04,,,0.10,VWS V14.01,2013-05-27 12:34:00,
2013-05-27 08:39:00,52.0,50.3,30.10,SSE,159,1.0,8.0,94,0.04,,,0.10,VWS V14.01,2013-05-27 12:39:00,
2013-05-27 08:44:00,51.9,50.2,30.10,SW,223,5.0,9.0,94,0.04,,,0.11,VWS V14.01,2013-05-27 12:44:00,
2013-05-27 08:49:00,52.0,50.3,30.10,SSW,206,7.0,9.0,94,0.04,,,0.11,VWS V14.01,2013-05-27 12:49:00,
2013-05-27 08:54:00,52.0,50.3,30.09,SW,232,1.0,7.0,94,0.04,,,0.11,VWS V14.01,2013-05-27 12:54:00,
2013-05-27 08:59:00,51.9,50.2,30.09,South,189,3.0,7.0,94,0.05,,,0.12,VWS V14.01,2013-05-27 12:59:00,
2013-05-27 09:04:00,51.9,50.2,30.09,SW,230,0.0,8.0,94,0.04,,,0.12,VWS V14.01,2013-05-27 13:04:00,
2013-05-27 09:09:00,51.8,50.1,30.10,South,176,0.0,8.0,94,0.04,,,0.12,VWS V14.01,2013-05-27 13:09:00,
2013-05-27 09:14:00,51.9,50.2,30.09,SSW,195,0.0,7.0,94,0.03,,,0.12,VWS V14.01,2013-05-27 13:14:00,
2013-05-27 09:19:00,51.9,50.2,30.09,SW,216,1.0,7.0,94,0.02,,,0.12,VWS V14.01,2013-05-27 13:19:00,
2013-05-27 09:24:00,51.9,50.5,30.10,SW,232,2.0,7.0,95,0.02,,,0.12,VWS V14.01,2013-05-27 13:24:00,
2013-05-27 09:29:00,51.9,50.5,30.10,SE,125,0.0,8.0,95,0.03,,,0.13,VWS V14.01,2013-05-27 13:29:00,
2013-05-27 09:34:00,51.9,50.5,30.09,ESE,102,0.0,8.0,95,0.03,,,0.13,VWS V14.01,2013-05-27 13:34:00,
2013-05-27 09:39:00,51.9,50.5,30.09,SSE,152,3.0,8.0,95,0.04,,,0.14,VWS V14.01,2013-05-27 13:39:00,
2013-05-27 09:44:00,51.9,50.5,30.09,SE,134,1.0,6.0,95,0.03,,,0.14,VWS V14.01,2013-05-27 13:44:00,
2013-05-27 09:49:00,51.9,50.5,30.09,South,180,3.0,7.0,95,0.04,,,0.15,VWS V14.01,2013-05-27 13:49:00,
2013-05-27 09:54:00,52.0,50.6,30.09,WSW,246,0.0,7.0,95,0.04,,,0.15,VWS V14.01,2013-05-27 13:54:00,
2013-05-27 09:59:00,52.0,50.6,30.08,East,86,0.0,7.0,95,0.04,,,0.16,VWS V14.01,2013-05-27 13:59:00,
2013-05-27 10:04:00,52.0,50.6,30.08,SSE,162,1.0,7.0,95,0.04,,,0.16,VWS V14.01,2013-05-27 14:04:00,
2013-05-27 10:09:00,52.0,50.6,30.08,South,188,5.0,8.0,95,0.04,,,0.16,VWS V14.01,2013-05-27 14:09:00,
2013-05-27 10:14:00,51.9,50.5,30.08,SE,146,2.0,8.0,95,0.04,,,0.16,VWS V14.01,2013-05-27 14:14:00,
2013-05-27 10:19:00,52.0,50.6,30.07,North,11,0.0,8.0,95,0.04,,,0.16,VWS V14.01,2013-05-27 14:19:00,
2013-05-27 10:24:00,52.1,51.0,30.07,West,261,0.0,4.0,96,0.04,,,0.16,VWS V14.01,2013-05-27 14:24:00,
2013-05-27 10:29:00,52.2,51.1,30.07,SE,126,1.0,6.0,96,0.03,,,0.16,VWS V14.01,2013-05-27 14:29:00,
2013-05-27 10:34:00,52.1,50.7,30.08,ESE,107,0.0,6.0,95,0.03,,,0.16,VWS V14.01,2013-05-27 14:34:00,
2013-05-27 10:39:00,52.1,51.0,30.08,South,188,0.0,6.0,96,0.03,,,0.17,VWS V14.01,2013-05-27 14:39:00,
2013-05-27 10:44:00,52.2,51.1,30.08,ESE,109,3.0,9.0,96,0.03,,,0.17,VWS V14.01,2013-05-27 14:44:00,
2013-05-27 10:49:00,52.2,51.1,30.08,SSW,196,1.0,9.0,96,0.02,,,0.17,VWS V14.01,2013-05-27 14:49:00,
2013-05-27 10:54:00,52.2,51.1,30.08,ESE,112,0.0,9.0,96,0.02,,,0.17,VWS V14.01,2013-05-27 14:54:00,
2013-05-27 10:59:00,52.2,51.1,30.08,SW,221,0.0,7.0,96,0.02,,,0.18,VWS V14.01,2013-05-27 14:59:00,
2013-05-27 11:04:00,52.2,51.1,30.07,West,265,0.0,5.0,96,0.02,,,0.18,VWS V14.01,2013-05-27 15:04:00,
2013-05-27 11:09:00,52.3,51.2,30.06,NNE,15,0.0,4.0,96,0.03,,,0.19,VWS V14.01,2013-05-27 15:09:00,
2013-05-27 11:14:00,52.4,51.3,30.06,SSW,206,1.0,2.0,96,0.03,,,0.19,VWS V14.01,2013-05-27 15:14:00,
2013-05-27 11:19:00,52.5,51.4,30.06,NW,323,0.0,2.0,96,0.03,,,0.19,VWS V14.01,2013-05-27 15:19:00,
2013-05-27 11:24:00,52.5,51.4,30.06,SSW,192,0.0,4.0,96,0.04,,,0.20,VWS V14.01,2013-05-27 15:24:00,
2013-05-27 11:29:00,52.5,51.4,30.06,South,174,2.0,7.0,96,0.04,,,0.20,VWS V14.01,2013-05-27 15:29:00,
2013-05-27 11:34:00,52.4,51.3,30.06,SSE,153,0.0,7.0,96,0.04,,,0.20,VWS V14.01,2013-05-27 15:34:00,
2013-05-27 11:39:00,52.5,51.4,30.06,SSW,197,2.0,5.0,96,0.03,,,0.20,VWS V14.01,2013-05-27 15:39:00,
2013-05-27 11:44:00,52.5,51.4,30.06,NNE,30,0.0,5.0,96,0.03,,,0.20,VWS V14.01,2013-05-27 15:44:00,
2013-05-27 11:49:00,52.6,51.8,30.06,SW,222,2.0,5.0,97,0.03,,,0.20,VWS V14.01,2013-05-27 15:49:00,
2013-05-27 11:54:00,52.8,52.0,30.05,SW,229,0.0,3.0,97,0.03,,,0.20,VWS V14.01,2013-05-27 15:54:00,
2013-05-27 11:59:00,53.0,51.9,30.05,SSW,197,0.0,5.0,96,0.02,,,0.20,VWS V14.01,2013-05-27 15:59:00,
2013-05-27 12:04:00,53.1,52.3,30.05,SSW,209,3.0,6.0,97,0.02,,,0.20,VWS V14.01,2013-05-27 16:04:00,
2013-05-27 12:09:00,53.2,52.4,30.05,SW,223,1.0,6.0,97,0.01,,,0.20,VWS V14.01,2013-05-27 16:09:00,
2013-05-27 12:14:00,53.3,52.5,30.05,SSW,197,1.0,7.0,97,0.01,,,0.20,VWS V14.01,2013-05-27 16:14:00,
2013-05-27 12:19:00,53.4,52.6,30.05,West,272,0.0,7.0,97,0.01,,,0.20,VWS V14.01,2013-05-27 16:19:00,
2013-05-27 12:24:00,53.5,52.4,30.04,SSW,198,1.0,7.0,96,0.00,,,0.20,VWS V14.01,2013-05-27 16:24:00,
2013-05-27 12:29:00,53.6,52.8,30.04,SSE,156,2.0,6.0,97,0.00,,,0.20,VWS V14.01,2013-05-27 16:29:00,
2013-05-27 12:34:00,53.9,53.1,30.04,SSE,155,3.0,6.0,97,0.00,,,0.20,VWS V14.01,2013-05-27 16:34:00,
2013-05-27 12:39:00,54.1,53.3,30.04,South,176,0.0,5.0,97,0.00,,,0.20,VWS V14.01,2013-05-27 16:39:00,
2013-05-27 12:44:00,54.2,53.4,30.04,SSE,151,3.0,8.0,97,0.00,,,0.20,VWS V14.01,2013-05-27 16:44:00,
2013-05-27 12:49:00,54.4,53.3,30.04,SE,138,0.0,8.0,96,0.00,,,0.20,VWS V14.01,2013-05-27 16:49:00,
2013-05-27 12:54:00,54.6,53.5,30.03,SSW,206,3.0,6.0,96,0.00,,,0.20,VWS V14.01,2013-05-27 16:54:00,
2013-05-27 12:59:00,54.5,53.4,30.03,SW,231,1.0,7.0,96,0.00,,,0.20,VWS V14.01,2013-05-27 16:59:00,
2013-05-27 13:04:00,54.6,53.5,30.03,South,181,3.0,7.0,96,0.00,,,0.20,VWS V14.01,2013-05-27 17:04:00,
2013-05-27 13:09:00,54.7,53.3,30.03,South,190,0.0,7.0,95,0.00,,,0.20,VWS V14.01,2013-05-27 17:09:00,
2013-05-27 13:14:00,54.7,53.3,30.02,South,183,4.0,5.0,95,0.00,,,0.20,VWS V14.01,2013-05-27 17:14:00,
2013-05-27 13:19:00,54.8,53.4,30.02,North,5,0.0,5.0,95,0.00,,,0.20,VWS V14.01,2013-05-27 17:19:00,
2013-05-27 13:24:00,54.9,53.5,30.02,NNE,23,0.0,9.0,95,0.00,,,0.20,VWS V14.01,2013-05-27 17:24:00,
2013-05-27 13:29:00,55.0,53.6,30.02,SSE,158,4.0,9.0,95,0.00,,,0.20,VWS V14.01,2013-05-27 17:29:00,
2013-05-27 13:34:00,55.0,53.6,30.02,SW,218,0.0,9.0,95,0.00,,,0.20,VWS V14.01,2013-05-27 17:34:00,
2013-05-27 13:39:00,55.0,53.6,30.02,South,189,1.0,6.0,95,0.00,,,0.20,VWS V14.01,2013-05-27 17:39:00,
2013-05-27 13:44:00,55.3,53.9,30.02,WSW,246,0.0,5.0,95,0.00,,,0.20,VWS V14.01,2013-05-27 17:44:00,
2013-05-27 13:48:00,55.3,53.9,30.01,South,169,1.0,10.0,95,0.00,,,0.20,VWS V14.01,2013-05-27 17:48:00,
2013-05-27 13:53:00,55.4,54.0,30.01,SSW,201,1.0,10.0,95,0.00,,,0.20,VWS V14.01,2013-05-27 17:53:00,
2013-05-27 13:58:00,55.7,54.3,30.01,South,187,0.0,7.0,95,0.00,,,0.20,VWS V14.01,2013-05-27 17:58:00,
2013-05-27 14:03:00,56.1,54.7,30.00,SE,132,2.0,6.0,95,0.00,,,0.20,VWS V14.01,2013-05-27 18:03:00,
2013-05-27 14:08:00,56.6,55.2,30.00,SSW,196,0.0,6.0,95,0.00,,,0.20,VWS V14.01,2013-05-27 18:08:00,
2013-05-27 14:13:00,56.9,55.5,30.00,South,186,0.0,6.0,95,0.00,,,0.20,VWS V14.01,2013-05-27 18:13:00,
2013-05-27 14:18:00,57.2,55.5,30.00,WSW,243,0.0,7.0,94,0.00,,,0.20,VWS V14.01,2013-05-27 18:18:00,
2013-05-27 14:23:00,57.4,55.4,29.99,SSW,208,0.0,7.0,93,0.00,,,0.20,VWS V14.01,2013-05-27 18:23:00,
2013-05-27 14:28:00,57.8,55.8,30.00,SSW,196,3.0,7.0,93,0.00,,,0.20,VWS V14.01,2013-05-27 18:28:00,
2013-05-27 16:27:00,56.8,55.1,29.98,South,180,0.0,0.0,94,0.06,,,0.26,VWS V14.01,2013-05-27 20:27:00,
2013-05-27 16:32:00,56.8,55.1,29.97,SSW,201,0.0,3.0,94,0.08,,,0.28,VWS V14.01,2013-05-27 20:32:00,
2013-05-27 16:37:00,56.6,54.9,29.97,SSW,202,0.0,3.0,94,0.08,,,0.28,VWS V14.01,2013-05-27 20:37:00,
2013-05-27 16:42:00,56.5,54.8,29.97,SSW,202,0.0,3.0,94,0.09,,,0.29,VWS V14.01,2013-05-27 20:42:00,
2013-05-27 16:47:00,56.5,55.1,29.97,SSW,202,0.0,0.0,95,0.09,,,0.29,VWS V14.01,2013-05-27 20:47:00,
2013-05-27 16:52:00,56.5,55.1,29.97,SSW,202,0.0,2.0,95,0.10,,,0.30,VWS V14.01,2013-05-27 20:52:00,
2013-05-27 16:57:00,56.4,55.0,29.97,SSW,202,0.0,2.0,95,0.10,,,0.30,VWS V14.01,2013-05-27 20:57:00,
2013-05-27 17:02:00,56.4,55.0,29.97,SSW,202,0.0,2.0,95,0.09,,,0.30,VWS V14.01,2013-05-27 21:02:00,
2013-05-27 17:07:00,56.3,54.9,29.97,SSW,202,0.0,1.0,95,0.08,,,0.30,VWS V14.01,2013-05-27 21:07:00,
2013-05-27 17:12:00,56.3,54.9,29.96,SSW,203,0.0,2.0,95,0.07,,,0.31,VWS V14.01,2013-05-27 21:12:00,
2013-05-27 17:17:00,56.3,54.9,29.96,SW,236,0.0,2.0,95,0.07,,,0.31,VWS V14.01,2013-05-27 21:17:00,
2013-05-27 17:22:00,56.2,54.8,29.95,SW,236,0.0,2.0,95,0.06,,,0.31,VWS V14.01,2013-05-27 21:22:00,
2013-05-27 17:27:00,56.0,54.6,29.95,West,271,0.0,6.0,95,0.05,,,0.31,VWS V14.01,2013-05-27 21:27:00,
2013-05-27 17:32:00,56.0,54.9,29.95,South,176,0.0,6.0,96,0.04,,,0.31,VWS V14.01,2013-05-27 21:32:00,
2013-05-27 17:37:00,56.1,55.0,29.94,South,177,0.0,3.0,96,0.03,,,0.31,VWS V14.01,2013-05-27 21:37:00,
2013-05-27 17:42:00,56.1,55.0,29.94,South,177,0.0,3.0,96,0.02,,,0.31,VWS V14.01,2013-05-27 21:42:00,
2013-05-27 17:47:00,56.0,54.9,29.94,NW,304,0.0,3.0,96,0.02,,,0.31,VWS V14.01,2013-05-27 21:47:00,
2013-05-27 17:52:00,56.0,54.9,29.93,South,169,0.0,3.0,96,0.01,,,0.31,VWS V14.01,2013-05-27 21:52:00,
2013-05-27 17:57:00,55.9,54.8,29.93,NE,45,0.0,5.0,96,0.01,,,0.31,VWS V14.01,2013-05-27 21:57:00,
2013-05-27 18:02:00,55.9,54.8,29.93,NW,321,0.0,5.0,96,0.01,,,0.31,VWS V14.01,2013-05-27 22:02:00,
2013-05-27 18:07:00,55.9,54.8,29.93,WSW,243,0.0,5.0,96,0.01,,,0.31,VWS V14.01,2013-05-27 22:07:00,
2013-05-27 18:12:00,56.0,54.9,29.93,SW,234,0.0,3.0,96,0.00,,,0.31,VWS V14.01,2013-05-27 22:12:00,
2013-05-27 18:17:00,56.0,54.9,29.92,WSW,237,0.0,4.0,96,0.00,,,0.31,VWS V14.01,2013-05-27 22:17:00,
2013-05-27 18:22:00,56.2,55.4,29.92,WNW,284,0.0,4.0,97,0.00,,,0.31,VWS V14.01,2013-05-27 22:22:00,
2013-05-27 18:27:00,56.0,54.9,29.93,SW,219,1.0,6.0,96,0.00,,,0.31,VWS V14.01,2013-05-27 22:27:00,
2013-05-27 18:32:00,55.9,54.8,29.93,South,186,0.0,6.0,96,0.00,,,0.31,VWS V14.01,2013-05-27 22:32:00,
2013-05-27 18:37:00,56.0,55.2,29.92,SW,221,0.0,6.0,97,0.00,,,0.31,VWS V14.01,2013-05-27 22:37:00,
2013-05-27 18:42:00,55.9,54.8,29.92,West,267,0.0,4.0,96,0.00,,,0.31,VWS V14.01,2013-05-27 22:42:00,
2013-05-27 18:47:00,55.8,54.7,29.92,NNE,31,2.0,4.0,96,0.00,,,0.31,VWS V14.01,2013-05-27 22:47:00,
2013-05-27 18:52:00,55.9,54.8,29.92,ENE,69,1.0,4.0,96,0.00,,,0.31,VWS V14.01,2013-05-27 22:52:00,
2013-05-27 18:57:00,55.8,54.7,29.92,ENE,65,1.0,4.0,96,0.00,,,0.31,VWS V14.01,2013-05-27 22:57:00,
2013-05-27 19:02:00,55.7,54.6,29.92,SSE,162,0.0,4.0,96,0.00,,,0.31,VWS V14.01,2013-05-27 23:02:00,
2013-05-27 19:07:00,55.5,54.4,29.91,WSW,242,1.0,7.0,96,0.00,,,0.31,VWS V14.01,2013-05-27 23:07:00,
2013-05-27 19:12:00,55.6,54.8,29.91,WSW,257,1.0,7.0,97,0.00,,,0.31,VWS V14.01,2013-05-27 23:12:00,
2013-05-27 19:17:00,55.5,54.4,29.91,West,269,0.0,7.0,96,0.00,,,0.31,VWS V14.01,2013-05-27 23:17:00,
2013-05-27 19:22:00,55.5,54.4,29.91,WSW,244,0.0,5.0,96,0.00,,,0.31,VWS V14.01,2013-05-27 23:22:00,
2013-05-27 19:27:00,55.5,54.4,29.91,WNW,287,4.0,6.0,96,0.00,,,0.31,VWS V14.01,2013-05-27 23:27:00,
2013-05-27 19:32:00,55.5,54.4,29.91,SW,221,0.0,6.0,96,0.00,,,0.31,VWS V14.01,2013-05-27 23:32:00,
2013-05-27 19:37:00,55.5,54.4,29.91,SW,221,0.0,5.0,96,0.00,,,0.31,VWS V14.01,2013-05-27 23:37:00,
2013-05-27 19:42:00,55.5,54.4,29.91,WSW,253,0.0,5.0,96,0.00,,,0.31,VWS V14.01,2013-05-27 23:42:00,
2013-05-27 19:47:00,55.5,54.4,29.92,South,187,0.0,5.0,96,0.00,,,0.31,VWS V14.01,2013-05-27 23:47:00,
2013-05-27 19:52:00,55.5,54.4,29.91,South,187,0.0,2.0,96,0.00,,,0.31,VWS V14.01,2013-05-27 23:52:00,
2013-05-27 19:57:00,55.6,54.8,29.91,West,276,2.0,2.0,97,0.00,,,0.31,VWS V14.01,2013-05-27 23:57:00,
2013-05-27 20:02:00,55.5,54.4,29.91,SW,217,0.0,4.0,96,0.00,,,0.31,VWS V14.01,2013-05-28 00:02:00,
2013-05-27 20:07:00,55.5,54.4,29.90,WSW,248,1.0,4.0,96,0.00,,,0.31,VWS V14.01,2013-05-28 00:07:00,
2013-05-27 20:12:00,55.4,54.3,29.90,SW,225,0.0,3.0,96,0.00,,,0.31,VWS V14.01,2013-05-28 00:12:00,
2013-05-27 20:17:00,55.4,54.3,29.90,SW,225,2.0,2.0,96,0.00,,,0.31,VWS V14.01,2013-05-28 00:17:00,
2013-05-27 20:22:00,55.4,54.3,29.90,SSW,213,0.0,4.0,96,0.00,,,0.31,VWS V14.01,2013-05-28 00:22:00,
2013-05-27 20:27:00,55.4,54.3,29.90,WNW,294,1.0,4.0,96,0.00,,,0.31,VWS V14.01,2013-05-28 00:27:00,
2013-05-27 20:32:00,55.4,54.3,29.90,WNW,284,0.0,3.0,96,0.00,,,0.31,VWS V14.01,2013-05-28 00:32:00,
2013-05-27 20:36:00,55.4,54.3,29.90,SW,222,0.0,3.0,96,0.00,,,0.31,VWS V14.01,2013-05-28 00:36:00,
2013-05-27 20:41:00,55.4,54.3,29.90,WNW,285,0.0,3.0,96,0.00,,,0.31,VWS V14.01,2013-05-28 00:41:00,
2013-05-27 20:46:00,55.4,54.3,29.91,South,177,0.0,3.0,96,0.00,,,0.31,VWS V14.01,2013-05-28 00:46:00,
2013-05-27 20:51:00,55.5,54.4,29.91,WNW,291,0.0,3.0,96,0.00,,,0.31,VWS V14.01,2013-05-28 00:51:00,
2013-05-27 20:56:00,55.5,54.7,29.91,WSW,247,0.0,3.0,97,0.00,,,0.31,VWS V14.01,2013-05-28 00:56:00,
2013-05-27 21:01:00,55.6,54.8,29.91,WSW,247,0.0,3.0,97,0.00,,,0.31,VWS V14.01,2013-05-28 01:01:00,
2013-05-27 21:06:00,55.6,54.8,29.90,SE,135,2.0,3.0,97,0.00,,,0.31,VWS V14.01,2013-05-28 01:06:00,
2013-05-27 21:11:00,55.6,54.8,29.90,SSE,148,0.0,2.0,97,0.01,,,0.32,VWS V14.01,2013-05-28 01:11:00,
2013-05-27 21:16:00,55.6,54.8,29.90,NNW,334,0.0,2.0,97,0.01,,,0.32,VWS V14.01,2013-05-28 01:16:00,
2013-05-27 21:21:00,55.7,54.9,29.89,West,273,0.0,2.0,97,0.01,,,0.32,VWS V14.01,2013-05-28 01:21:00,
2013-05-27 21:26:00,55.6,54.8,29.90,NNW,332,0.0,2.0,97,0.01,,,0.32,VWS V14.01,2013-05-28 01:26:00,
2013-05-27 21:31:00,55.6,54.8,29.90,SSW,205,0.0,2.0,97,0.01,,,0.32,VWS V14.01,2013-05-28 01:31:00,
2013-05-27 21:36:00,55.6,54.8,29.90,WSW,246,0.0,3.0,97,0.01,,,0.32,VWS V14.01,2013-05-28 01:36:00,
2013-05-27 21:41:00,55.6,54.8,29.89,SW,234,2.0,3.0,97,0.01,,,0.32,VWS V14.01,2013-05-28 01:41:00,
2013-05-27 21:46:00,55.7,54.9,29.89,SW,234,0.0,3.0,97,0.01,,,0.32,VWS V14.01,2013-05-28 01:46:00,
2013-05-27 21:51:00,55.7,54.9,29.89,WSW,240,0.0,3.0,97,0.01,,,0.32,VWS V14.01,2013-05-28 01:51:00,
2013-05-27 21:56:00,55.6,54.8,29.89,WSW,240,0.0,1.0,97,0.01,,,0.32,VWS V14.01,2013-05-28 01:56:00,
2013-05-27 22:01:00,55.6,54.8,29.89,WSW,240,0.0,1.0,97,0.01,,,0.32,VWS V14.01,2013-05-28 02:01:00,
2013-05-27 22:06:00,55.7,54.9,29.89,WSW,240,0.0,1.0,97,0.01,,,0.32,VWS V14.01,2013-05-28 02:06:00,
2013-05-27 22:11:00,55.7,54.9,29.89,WSW,241,0.0,1.0,97,0.01,,,0.32,VWS V14.01,2013-05-28 02:11:00,
2013-05-27 22:16:00,55.7,54.9,29.89,WSW,241,0.0,1.0,97,0.00,,,0.32,VWS V14.01,2013-05-28 02:16:00,
2013-05-27 22:21:00,55.7,54.9,29.89,WSW,241,0.0,1.0,97,0.00,,,0.32,VWS V14.01,2013-05-28 02:21:00,
2013-05-27 22:26:00,55.7,54.9,29.89,WSW,241,0.0,3.0,97,0.00,,,0.32,VWS V14.01,2013-05-28 02:26:00,
2013-05-27 22:31:00,55.7,54.9,29.89,WSW,241,0.0,3.0,97,0.00,,,0.32,VWS V14.01,2013-05-28 02:31:00,
2013-05-27 22:36:00,55.7,54.9,29.89,WSW,241,0.0,3.0,97,0.00,,,0.32,VWS V14.01,2013-05-28 02:36:00,
2013-05-27 22:41:00,55.8,55.0,29.89,WSW,241,0.0,0.0,97,0.00,,,0.32,VWS V14.01,2013-05-28 02:41:00,
2013-05-27 22:46:00,55.8,55.0,29.90,WSW,241,0.0,1.0,97,0.00,,,0.32,VWS V14.01,2013-05-28 02:46:00,
2013-05-27 22:51:00,55.8,55.0,29.90,WSW,241,0.0,3.0,97,0.00,,,0.32,VWS V14.01,2013-05-28 02:51:00,
2013-05-27 22:56:00,55.8,55.0,29.90,WSW,241,0.0,3.0,97,0.00,,,0.32,VWS V14.01,2013-05-28 02:56:00,
2013-05-27 23:01:00,55.9,55.1,29.89,WSW,241,0.0,3.0,97,0.00,,,0.32,VWS V14.01,2013-05-28 03:01:00,
2013-05-27 23:06:00,55.9,55.1,29.90,WSW,240,0.0,1.0,97,0.00,,,0.32,VWS V14.01,2013-05-28 03:06:00,
2013-05-27 23:11:00,55.9,55.1,29.90,WSW,240,0.0,1.0,97,0.00,,,0.32,VWS V14.01,2013-05-28 03:11:00,
2013-05-27 23:16:00,55.9,55.1,29.89,WSW,240,0.0,1.0,97,0.00,,,0.32,VWS V14.01,2013-05-28 03:16:00,
2013-05-27 23:21:00,55.9,55.1,29.90,WSW,240,0.0,1.0,97,0.00,,,0.32,VWS V14.01,2013-05-28 03:21:00,
2013-05-27 23:26:00,55.9,55.1,29.90,WSW,240,0.0,1.0,97,0.00,,,0.32,VWS V14.01,2013-05-28 03:26:00,
2013-05-27 23:31:00,55.9,55.1,29.90,SSW,209,0.0,2.0,97,0.00,,,0.32,VWS V14.01,2013-05-28 03:31:00,
2013-05-27 23:36:00,55.9,55.1,29.90,SSW,209,0.0,2.0,97,0.00,,,0.32,VWS V14.01,2013-05-28 03:36:00,
2013-05-27 23:41:00,56.0,55.2,29.90,SSW,209,2.0,2.0,97,0.00,,,0.32,VWS V14.01,2013-05-28 03:41:00,
2013-05-27 23:46:00,55.9,55.1,29.90,SSW,209,0.0,2.0,97,0.00,,,0.32,VWS V14.01,2013-05-28 03:46:00,
2013-05-27 23:51:00,56.0,55.2,29.90,SSW,209,0.0,2.0,97,0.00,,,0.32,VWS V14.01,2013-05-28 03:51:00,
2013-05-27 23:56:00,56.0,55.5,29.89,West,261,1.0,1.0,98,0.00,,,0.32,VWS V14.01,2013-05-28 03:56:00,